BHS374 MYNN-MYEF

Flight info

Callsign BHS374
Flight time 0h 32m
Altitude 13000
Route BOSAR
Aircraft AT76/M-SDFGIRY/S

Departure

Time 2026-05-04 21:48
Airport Lynden Pindling International Airport (MYNN)

Arrival

Time 2026-05-04 22:20
Airport Exuma International Airport (MYEF)
Time Latitude Longitude Altitude Speed Heading
2026-05-04 21:45 25.04718 -77.46786 20 ft 10 kts 307°
2026-05-04 21:45 25.04780 -77.46858 20 ft 15 kts 315°
2026-05-04 21:45 25.04878 -77.46970 20 ft 26 kts 309°
2026-05-04 21:46 25.05012 -77.47115 20 ft 26 kts 315°
2026-05-04 21:46 25.05135 -77.47253 20 ft 22 kts 315°
2026-05-04 21:46 25.05218 -77.47372 20 ft 17 kts 281°
2026-05-04 21:46 25.05200 -77.47488 20 ft 14 kts 245°
2026-05-04 21:47 25.05136 -77.47514 20 ft 10 kts 139°
2026-05-04 21:47 25.05004 -77.47365 20 ft 56 kts 136°
2026-05-04 21:47 25.04598 -77.46914 20 ft 106 kts 135°
2026-05-04 21:47 25.04018 -77.46275 270 ft 118 kts 134°
2026-05-04 21:48 25.03446 -77.45670 660 ft 119 kts 134°
2026-05-04 21:48 25.02765 -77.44942 754 ft 147 kts 135°
2026-05-04 21:48 25.02036 -77.44155 1071 ft 152 kts 135°
2026-05-04 21:48 25.01245 -77.43298 1218 ft 163 kts 135°
2026-05-04 21:49 25.00428 -77.42394 1422 ft 169 kts 134°
2026-05-04 21:49 24.99568 -77.41481 1678 ft 176 kts 135°
2026-05-04 21:49 24.98680 -77.40518 2014 ft 180 kts 135°
2026-05-04 21:49 24.97794 -77.39546 2442 ft 180 kts 135°
2026-05-04 21:50 24.96910 -77.38577 2867 ft 180 kts 135°
2026-05-04 21:50 24.96010 -77.37590 3273 ft 181 kts 135°
2026-05-04 21:50 24.95107 -77.36591 3678 ft 183 kts 135°
2026-05-04 21:50 24.94203 -77.35593 4071 ft 184 kts 134°
2026-05-04 21:51 24.93286 -77.34589 4441 ft 188 kts 135°
2026-05-04 21:51 24.92366 -77.33566 4789 ft 191 kts 135°
2026-05-04 21:51 24.91428 -77.32490 5164 ft 194 kts 135°
2026-05-04 21:51 24.90501 -77.31392 5559 ft 194 kts 135°
2026-05-04 21:52 24.89598 -77.30289 5958 ft 194 kts 135°
2026-05-04 21:52 24.88396 -77.28798 6455 ft 196 kts 134°
2026-05-04 21:52 24.87792 -77.28046 6700 ft 197 kts 134°
2026-05-04 21:52 24.86863 -77.26898 7037 ft 201 kts 135°
2026-05-04 21:53 24.85938 -77.25754 7404 ft 202 kts 134°
2026-05-04 21:53 24.85008 -77.24602 7772 ft 202 kts 135°
2026-05-04 21:53 24.84084 -77.23433 8168 ft 202 kts 134°
2026-05-04 21:53 24.83158 -77.22268 8512 ft 204 kts 134°
2026-05-04 21:54 24.82207 -77.21082 8833 ft 207 kts 134°
2026-05-04 21:54 24.81244 -77.19876 9184 ft 208 kts 134°
2026-05-04 21:54 24.80287 -77.18665 9541 ft 209 kts 134°
2026-05-04 21:54 24.79333 -77.17450 9878 ft 210 kts 135°
2026-05-04 21:55 24.78371 -77.16221 10201 ft 213 kts 134°
2026-05-04 21:55 24.77395 -77.14968 10524 ft 215 kts 134°
2026-05-04 21:55 24.76521 -77.13622 10848 ft 219 kts 122°
2026-05-04 21:55 24.75812 -77.12142 11179 ft 220 kts 120°
2026-05-04 21:56 24.75130 -77.10638 11501 ft 222 kts 120°
2026-05-04 21:56 24.74444 -77.09107 11806 ft 224 kts 120°
2026-05-04 21:56 24.73751 -77.07548 12113 ft 226 kts 120°
2026-05-04 21:56 24.73066 -77.06007 12420 ft 227 kts 120°
2026-05-04 21:57 24.72364 -77.04429 12730 ft 229 kts 120°
2026-05-04 21:57 24.71667 -77.02858 13003 ft 232 kts 120°
2026-05-04 21:57 24.70932 -77.01212 13046 ft 246 kts 120°
2026-05-04 21:57 24.70141 -76.99442 13034 ft 259 kts 120°
2026-05-04 21:58 24.69336 -76.97633 13021 ft 263 kts 119°
2026-05-04 21:58 24.68514 -76.95782 13007 ft 265 kts 119°
2026-05-04 21:58 24.67700 -76.93951 13004 ft 266 kts 119°
2026-05-04 21:58 24.66881 -76.92110 13003 ft 267 kts 119°
2026-05-04 21:59 24.66055 -76.90257 13003 ft 267 kts 119°
2026-05-04 21:59 24.65235 -76.88419 13002 ft 268 kts 119°
2026-05-04 21:59 24.64409 -76.86566 13002 ft 268 kts 120°
2026-05-04 21:59 24.63309 -76.84950 12987 ft 262 kts 140°
2026-05-04 22:00 24.61974 -76.83575 13014 ft 260 kts 142°
2026-05-04 22:00 24.60617 -76.82261 13005 ft 261 kts 143°
2026-05-04 22:00 24.59229 -76.80949 13003 ft 261 kts 144°
2026-05-04 22:00 24.57843 -76.79659 13004 ft 261 kts 144°
2026-05-04 22:01 24.56457 -76.78378 13005 ft 261 kts 144°
2026-05-04 22:01 24.55073 -76.77105 13006 ft 261 kts 145°
2026-05-04 22:01 24.53660 -76.75809 13006 ft 261 kts 145°
2026-05-04 22:01 24.52272 -76.74539 13008 ft 261 kts 145°
2026-05-04 22:02 24.50888 -76.73275 13008 ft 261 kts 145°
2026-05-04 22:02 24.49489 -76.71998 13009 ft 261 kts 145°
2026-05-04 22:02 24.48076 -76.70709 13011 ft 261 kts 145°
2026-05-04 22:02 24.46678 -76.69435 13011 ft 261 kts 144°
2026-05-04 22:03 24.45296 -76.68174 13011 ft 261 kts 144°
2026-05-04 22:03 24.43890 -76.66892 13011 ft 261 kts 144°
2026-05-04 22:03 24.42493 -76.65619 13010 ft 261 kts 145°
2026-05-04 22:03 24.41108 -76.64357 13010 ft 261 kts 145°
2026-05-04 22:04 24.39704 -76.63079 13011 ft 261 kts 145°
2026-05-04 22:04 24.38307 -76.61807 13011 ft 261 kts 145°
2026-05-04 22:04 24.36912 -76.60536 13011 ft 261 kts 144°
2026-05-04 22:04 24.35508 -76.59260 13011 ft 261 kts 144°
2026-05-04 22:05 24.34108 -76.57988 13012 ft 261 kts 144°
2026-05-04 22:05 24.32709 -76.56717 13011 ft 261 kts 144°
2026-05-04 22:05 24.31320 -76.55454 13011 ft 261 kts 144°
2026-05-04 22:05 24.29906 -76.54169 13011 ft 261 kts 144°
2026-05-04 22:06 24.28509 -76.52899 13011 ft 261 kts 144°
2026-05-04 22:06 24.27113 -76.51630 13011 ft 261 kts 144°
2026-05-04 22:06 24.25722 -76.50368 13012 ft 261 kts 144°
2026-05-04 22:06 24.24309 -76.49084 13011 ft 261 kts 144°
2026-05-04 22:07 24.22906 -76.47813 13011 ft 261 kts 144°
2026-05-04 22:07 24.21503 -76.46540 13011 ft 261 kts 144°
2026-05-04 22:07 24.20103 -76.45273 13012 ft 261 kts 144°
2026-05-04 22:07 24.18700 -76.44001 13011 ft 261 kts 144°
2026-05-04 22:08 24.17294 -76.42727 12863 ft 267 kts 144°
2026-05-04 22:08 24.15824 -76.41406 12591 ft 275 kts 145°
2026-05-04 22:08 24.14295 -76.40145 12327 ft 281 kts 147°
2026-05-04 22:08 24.12694 -76.38840 12053 ft 286 kts 147°
2026-05-04 22:09 24.11064 -76.37517 11773 ft 290 kts 147°
2026-05-04 22:09 24.09427 -76.36192 11489 ft 293 kts 147°
2026-05-04 22:09 24.07787 -76.34864 11192 ft 295 kts 147°
2026-05-04 22:09 24.06139 -76.33531 10821 ft 292 kts 147°
2026-05-04 22:10 24.04511 -76.32216 10442 ft 291 kts 146°
2026-05-04 22:10 24.02871 -76.30892 10060 ft 290 kts 146°
2026-05-04 22:10 24.01227 -76.29568 9677 ft 289 kts 146°
2026-05-04 22:10 23.99628 -76.28277 9303 ft 288 kts 146°
2026-05-04 22:11 23.98001 -76.26965 8923 ft 287 kts 146°
2026-05-04 22:11 23.96380 -76.25657 8543 ft 286 kts 146°
2026-05-04 22:11 23.94780 -76.24365 8167 ft 285 kts 146°
2026-05-04 22:11 23.93166 -76.23066 7789 ft 284 kts 146°
2026-05-04 22:12 23.91559 -76.21770 7410 ft 284 kts 146°
2026-05-04 22:12 23.89959 -76.20480 7032 ft 283 kts 146°
2026-05-04 22:12 23.87842 -76.18777 6531 ft 282 kts 146°
2026-05-04 22:12 23.86779 -76.17922 6278 ft 281 kts 146°
2026-05-04 22:13 23.85211 -76.16660 5904 ft 281 kts 146°
2026-05-04 22:13 23.83629 -76.15387 5527 ft 280 kts 146°
2026-05-04 22:13 23.82074 -76.14138 5155 ft 279 kts 145°
2026-05-04 22:13 23.80519 -76.12888 4782 ft 278 kts 145°
2026-05-04 22:14 23.78966 -76.11639 4408 ft 277 kts 145°
2026-05-04 22:14 23.77414 -76.10394 4032 ft 276 kts 145°
2026-05-04 22:14 23.75881 -76.09162 3679 ft 274 kts 145°
2026-05-04 22:14 23.74356 -76.07940 3322 ft 272 kts 145°
2026-05-04 22:15 23.72830 -76.06718 2994 ft 270 kts 145°
2026-05-04 22:15 23.71327 -76.05512 2626 ft 267 kts 145°
2026-05-04 22:15 23.69822 -76.04304 2242 ft 264 kts 145°
2026-05-04 22:15 23.68342 -76.03117 1862 ft 262 kts 145°
2026-05-04 22:16 23.66873 -76.01937 1518 ft 259 kts 144°
2026-05-04 22:16 23.65450 -76.00797 1461 ft 249 kts 144°
2026-05-04 22:16 23.64114 -75.99725 1474 ft 223 kts 144°
2026-05-04 22:16 23.62943 -75.98784 1441 ft 198 kts 145°
2026-05-04 22:17 23.61906 -75.97954 1530 ft 165 kts 145°
2026-05-04 22:17 23.61078 -75.97253 1501 ft 142 kts 134°
2026-05-04 22:17 23.60537 -75.96435 1479 ft 126 kts 127°
2026-05-04 22:17 23.60054 -75.95632 1401 ft 128 kts 122°
2026-05-04 22:18 23.59617 -75.94785 1252 ft 129 kts 119°
2026-05-04 22:18 23.59198 -75.93919 1089 ft 130 kts 118°
2026-05-04 22:18 23.58773 -75.93031 915 ft 131 kts 118°
2026-05-04 22:18 23.58352 -75.92148 735 ft 131 kts 117°
2026-05-04 22:19 23.57952 -75.91258 577 ft 129 kts 116°
2026-05-04 22:19 23.57549 -75.90397 382 ft 126 kts 119°
2026-05-04 22:19 23.57128 -75.89565 217 ft 125 kts 120°
2026-05-04 22:19 23.56720 -75.88734 45 ft 122 kts 117°
2026-05-04 22:20 23.56358 -75.87981 12 ft 98 kts 118°
2026-05-04 22:20 23.56167 -75.87587 14 ft 28 kts 117°
2026-05-04 22:20 23.56147 -75.87491 14 ft 8 kts 56°
2026-05-04 22:20 23.56191 -75.87457 14 ft 7 kts 33°
2026-05-04 22:21 23.56236 -75.87427 14 ft 7 kts 27°
2026-05-04 22:21 23.56282 -75.87402 15 ft 7 kts 26°
2026-05-04 22:21 23.56328 -75.87377 15 ft 7 kts 31°
2026-05-04 22:21 23.56333 -75.87332 16 ft 6 kts 120°
2026-05-04 22:22 23.56335 -75.87299 17 ft 1 kts 23°